Regional Weather Roundup
Issued by NWS New Orleans/Baton Rouge, LA

Home | Current Version | Previous Version | Text Only | Print | Product List | Glossary On
Versions: 1 2 3 4 5 6 7 8 9 10 11 12 13 14 15 16 17 18 19 20 21 22 23 24 25 26 27 28 29 30 31 32 33 34 35 36 37 38 39 40 41 42 43 44 45 46 47 48 49 50
000
ASUS44 KLIX 240313
RWRLIX
NEW ORLEANS REGIONAL WEATHER ROUNDUP
NATIONAL WEATHER SERVICE NEW ORLEANS LA
900 PM CST THU NOV 23 2017

NOTE: "FAIR" INDICATES FEW OR NO CLOUDS BELOW 12,000 FEET WITH NO
      SIGNIFICANT WEATHER AND/OR OBSTRUCTIONS TO VISIBILITY.
      SKY/WX - SKY CONDITION AND SIGNIFICANT WEATHER.
      TMP - AIR TEMPERATURE.     DP    - DEWPOINT TEMPERATURE.
      RH  - RELATIVE HUMIDITY.   PRES  - PRESSURE.
      HI  - HEAT INDEX.          WCI   - WIND CHILL INDEX.

*  THESE STATIONS ARE NOT NWS OR FAA STATIONS AND ARE NOT UNDER
   NWS QUALITY CONTROL.

LAZ038-040-048-061>063-065>067-069-240400-
SOUTHEAST LOUISIANA

CITY           SKY/WX    TMP DP  RH WIND       PRES   REMARKS
N.O. INTL ARPT CLEAR     54  40  59 N6        30.06R
N.O. LAKEFRONT CLEAR     58  37  45 N13       30.06R
N.O. DOWNTOWN*   N/A     57  35  43 N5        30.06R
RESERVE*         N/A     49  34  56 N3        30.07R
SLIDELL        CLEAR     44  35  70 N3        30.05R
BATON ROUGE    CLEAR     46  31  55 N3        30.08R
BOOTHVILLE     CLEAR     59  41  51 VRB6      30.04R
BELLE CHASSE   CLEAR     40  39  97 CALM      30.05R
BOGALUSA*      NOT AVBL
GALLIANO*      CLEAR     42  34  73 CALM      30.05S
NEW ROADS*       N/A     39  37  89 CALM      30.10R
GONZALES*        N/A     44  35  72 NW5       30.07R
HAMMOND*       CLEAR     41  34  75 CALM      30.07R
HOUMA*         CLEAR     49  33  52 NW5       30.06S
PORT FOURCHON* NOT AVBL

$$

MSZ070-080>082-240400-
SOUTHERN MISSISSIPPI

CITY           SKY/WX    TMP DP  RH WIND       PRES   REMARKS
MCCOMB         CLEAR     40  31  70 N7        30.06S
GULFPORT       CLEAR     44  37  76 CALM      30.04R
BILOXI         CLEAR     48  35  60 N6        30.03R
PASCAGOULA     CLEAR     37  33  85 CALM      30.04R

$$

COASTAL OBSERVATIONS
LAKE AND NEARSHORE STATIONS

STATION/POSITION TIME  TEMP    WIND        PRES    WAVE
                       AIR SEA DIR/SP/G            HT/PER
                 (UTC) (F)     (DEG/KT/KT) (MB)    (FT/S)
PASCAGOULA       0248   49      10/  6/  8 1016.5
WAVELAND YACHT   0248   52 59  350/  6/ 10 1017.2
GRAND ISLE       0248   58 62   10/  9/ 12 1017.3
SOUTHWEST PASS   0248   60 61   10/ 17/ 20 1017.2
NEW CANAL        0248   58 61   10/ 10/ 12 1017.4
SHELL BEACH      0248   58 62  360/ 11/ 14 1017.4

OFFSHORE STATIONS

STATION/POSITION TIME  TEMP    WIND        PRES    WAVE
                       AIR SEA DIR/SP/G            HT/PER
                 (UTC) (F)     (DEG/KT/KT) (MB)    (FT/S)
64 S DAUPHIN ISL 0250   65 77   10/ 14/ 19 1015.9    4/ 5

$$




USA.gov is the U.S. government's official web portal to all federal, state and local government web resources and services.